Location: Unspecified
(50.7693°N, 0.0000°E)
Time: 14:14:15
(UTC+00:00)

Transit 2A - Pass Details

Date: 26 June 2019
Orbit: 594 x 965 km, 66.7° (Epoch: 17 July)

Event Time Altitude Azimuth Distance (km) Brightness Sun altitude
Rises 01:35:27 0° 256° (WSW) 3,648 9.2 -13.1°
Reaches altitude 10° 01:38:22 10° 266° (W) 2,695 8.6 -12.9°
Maximum altitude 01:43:56 31° 327° (NNW) 1,578 8.0 -12.6°
Drops below altitude 10° 01:49:17 10° 29° (NNE) 2,577 10.3 -12.2°
Sets 01:52:01 0° 40° (NE) 3,466 11.1 -12.0°
